Location: Dampvalley
(47.9094°N, 6.1967°E)
Time: 06:21:01
(UTC+00:00)

N. Korean satellite - Pass Details

Date: 17 September 2021
Orbit: 450 x 495 km, 97.3° (Epoch: 21 October)

Event Time Altitude Azimuth Distance (km) Brightness Sun altitude
Rises 04:07:22 0° 26° (NNE) 2,497 10.9 -12.0°
Reaches altitude 10° 04:09:48 10° 44° (NE) 1,624 10.2 -11.6°
Maximum altitude 04:12:27 20° 94° (E) 1,127 9.4 -11.2°
Drops below altitude 10° 04:15:08 10° 144° (SE) 1,632 9.5 -10.7°
Sets 04:17:35 0° 161° (SSE) 2,514 10.2 -10.3°
